Date String (YYYY-MM-DD hh:mm:ss) UTC,Instrument flags,Ambient pressure (hPa),Sample flow (lpm),Bypass flow (lpm),Sample temperature (°C),Ambient temperature (°C),ASC tube jacket temperature (°C),LED temperature (°C),Box temperature (°C),Sample RH (%),Span deviation,Mass concentration (μg/m³),Mass concentration (μg/m³),Mass concentration (μg/m³)
DateTimeUTC,F1_M11,P_M11,Q1_M11,Q2_M11,T1_M11,T2_M11,T3_M11,T4_M11,T5_M11,U1_M11,ZSPAN_M11,X0_M11,X2_M11,X1_M11
2022-06-03 14:00:00,,0824.9,5.01,0.00,29.6,28.6,00.0,38.5,31.4,25.7,-000.1,0015.88,0010.30,0009.46
2022-06-03 14:01:00,,0824.9,5.00,0.00,29.6,28.6,00.0,38.5,31.4,25.8,-000.1,0015.73,0010.27,0009.47
2022-06-03 14:02:00,,0824.9,5.01,0.00,29.6,28.6,00.0,38.5,31.4,25.9,-000.2,0015.65,0010.21,0009.48
2022-06-03 14:03:00,,0824.9,5.00,0.00,29.6,28.6,00.0,38.5,31.5,25.6,-000.5,0015.79,0010.22,0009.49
2022-06-03 14:04:00,,0824.9,5.00,0.00,29.6,28.6,00.0,38.5,31.5,25.6,-000.9,0015.85,0010.23,0009.51
2022-06-03 14:05:00,,0824.9,4.98,0.00,29.6,28.6,00.0,38.5,31.5,25.9,-001.1,0015.77,0010.22,0009.52
2022-06-03 14:06:00,,0824.9,5.00,0.00,29.6,28.6,00.0,38.5,31.5,26.2,-001.4,0016.12,0010.14,0009.48
2022-06-03 14:07:00,,0824.9,5.00,0.00,29.6,28.6,00.0,38.5,31.5,25.6,-001.3,0016.14,0010.07,0009.43
2022-06-03 14:08:00,,0824.9,4.99,0.00,29.6,28.7,00.0,38.5,31.5,25.6,-001.1,0016.57,0010.07,0009.40
2022-06-03 14:09:00,,0824.9,5.00,0.00,29.6,28.7,00.0,38.5,31.5,25.5,-001.1,0017.97,0010.02,0009.34
2022-06-03 14:10:00,,0824.9,5.00,0.00,29.6,28.7,00.0,38.5,31.5,25.6,-001.2,0018.46,0009.97,0009.29
2022-06-03 14:11:00,,0824.9,5.00,0.00,29.7,28.7,00.0,38.5,31.5,26.2,-001.5,0018.74,0009.84,0009.22
2022-06-03 14:12:00,,0824.9,5.00,0.00,29.7,28.7,00.0,38.5,31.5,26.1,-001.6,0018.58,0009.77,0009.16
2022-06-03 14:13:00,,0824.9,5.01,0.00,29.7,28.7,00.0,38.5,31.5,26.0,-001.8,0018.40,0009.72,0009.12
2022-06-03 14:14:00,,0824.8,4.99,0.00,29.7,28.7,00.0,38.5,31.5,26.1,-001.8,0018.14,0009.69,0009.08
2022-06-03 14:15:00,,0824.8,4.99,0.00,29.7,28.7,00.0,38.6,31.5,26.2,-001.9,0018.06,0009.67,0009.04
2022-06-03 14:16:00,,0824.8,5.00,0.00,29.7,28.7,00.0,38.6,31.5,26.1,-002.0,0018.14,0009.66,0009.00
2022-06-03 14:17:00,,0824.8,5.01,0.00,29.7,28.7,00.0,38.6,31.5,26.0,-002.2,0018.41,0009.66,0008.99
2022-06-03 14:18:00,,0824.7,5.00,0.00,29.7,28.7,00.0,38.6,31.6,26.2,-002.2,0017.68,0009.67,0008.98
2022-06-03 14:19:00,,0824.7,4.99,0.00,29.7,28.7,00.0,38.6,31.6,26.7,-002.5,0017.33,0009.65,0008.97
2022-06-03 14:20:00,,0824.8,5.00,0.00,29.7,28.7,00.0,38.6,31.6,26.2,-002.6,0016.22,0009.65,0008.99
2022-06-03 14:21:00,,0824.7,4.99,0.00,29.7,28.7,00.0,38.6,31.6,26.1,-002.5,0016.09,0009.63,0009.00
2022-06-03 14:22:00,,0824.7,5.01,0.00,29.7,28.8,00.0,38.6,31.6,26.4,-002.2,0016.40,0009.68,0008.98
2022-06-03 14:23:00,,0824.6,5.00,0.00,29.7,28.8,00.0,38.6,31.6,27.0,-002.0,0017.08,0009.72,0008.94
2022-06-03 14:24:00,,0824.6,4.99,0.00,29.8,28.8,00.0,38.6,31.6,27.3,-001.6,0017.27,0009.71,0008.91
2022-06-03 14:25:00,,0824.6,4.99,0.00,29.8,28.8,00.0,38.6,31.6,26.6,-001.4,0017.30,0009.67,0008.89
2022-06-03 14:26:00,,0824.6,4.98,0.00,29.8,28.8,00.0,38.6,31.6,26.4,-001.4,0017.58,0009.64,0008.87
2022-06-03 14:27:00,,0824.6,4.99,0.00,29.8,28.8,00.0,38.6,31.6,26.4,-001.1,0017.58,0009.63,0008.85
2022-06-03 14:28:00,,0824.6,5.00,0.00,29.8,28.8,00.0,38.6,31.7,26.1,-000.6,0018.61,0009.65,0008.86
2022-06-03 14:29:00,,0824.6,4.99,0.00,29.8,28.8,00.0,38.7,31.7,25.9,-000.7,0018.54,0009.66,0008.86
2022-06-03 14:30:00,,0824.6,5.00,0.00,29.8,28.9,00.0,38.7,31.7,25.7,-000.9,0018.72,0009.64,0008.84
2022-06-03 14:31:00,,0824.6,5.01,0.00,29.8,28.9,00.0,38.7,31.7,25.7,-000.6,0018.77,0009.63,0008.83
2022-06-03 14:32:00,,0824.6,5.00,0.00,29.8,28.9,00.0,38.7,31.7,25.7,-000.6,0018.51,0009.63,0008.83
2022-06-03 14:33:00,,0824.6,4.99,0.00,29.8,28.9,00.0,38.7,31.7,25.9,-000.6,0018.84,0009.62,0008.84
2022-06-03 14:34:00,,0824.6,4.99,0.00,29.8,28.9,00.0,38.7,31.7,26.3,-000.6,0019.16,0009.64,0008.85
2022-06-03 14:35:00,,0824.6,4.99,0.00,29.9,28.9,00.0,38.7,31.7,26.5,-000.6,0019.09,0009.64,0008.85
2022-06-03 14:36:00,,0824.6,5.00,0.00,29.9,28.9,00.0,38.7,31.7,26.4,-000.3,0019.14,0009.67,0008.85
2022-06-03 14:37:00,,0824.6,5.00,0.00,29.9,28.9,00.0,38.7,31.7,25.8,0000.2,0019.29,0009.67,0008.83
2022-06-03 14:38:00,,0824.6,5.00,0.00,29.9,28.9,00.0,38.7,31.7,25.8,0000.2,0019.53,0009.70,0008.86
2022-06-03 14:39:00,,0824.7,5.00,0.00,29.9,29.0,00.0,38.7,31.8,26.1,-000.1,0019.75,0009.73,0008.90
2022-06-03 14:40:00,,0824.6,5.00,0.00,29.9,29.0,00.0,38.7,31.8,25.8,-000.2,0018.52,0009.77,0008.93
2022-06-03 14:41:00,,0824.6,5.00,0.00,29.9,29.0,00.0,38.8,31.8,25.7,0000.4,0019.99,0009.82,0008.99
2022-06-03 14:42:00,,0824.6,5.00,0.00,29.9,29.0,00.0,38.8,31.7,25.3,0000.2,0020.29,0009.88,0009.03
2022-06-03 14:43:00,,0824.6,5.00,0.00,29.9,29.0,00.0,38.8,31.8,24.6,0000.1,0020.19,0009.88,0009.03
2022-06-03 14:44:00,,0824.6,5.00,0.00,29.9,29.0,00.0,38.8,31.8,24.8,0000.2,0019.18,0009.92,0009.05
2022-06-03 14:45:00,,0824.6,5.00,0.00,29.9,29.0,00.0,38.8,31.8,24.8,-000.0,0018.72,0009.98,0009.09
2022-06-03 14:46:00,,0824.6,5.00,0.00,30.0,29.0,00.0,38.8,31.8,24.9,-000.3,0018.04,0010.04,0009.15
2022-06-03 14:47:00,,0824.6,5.01,0.00,30.0,29.0,00.0,38.8,31.8,25.3,-000.6,0018.11,0010.09,0009.22
2022-06-03 14:48:00,,0824.6,4.99,0.00,30.0,29.0,00.0,38.8,31.8,25.3,-000.7,0017.90,0010.17,0009.29
2022-06-03 14:49:00,,0824.6,4.98,0.00,30.0,29.0,00.0,38.8,31.8,25.9,-000.6,0018.05,0010.15,0009.30
2022-06-03 14:50:00,,0824.6,5.01,0.00,30.0,29.0,00.0,38.8,31.9,25.5,-000.5,0017.39,0010.18,0009.32
2022-06-03 14:51:00,,0824.6,5.01,0.00,30.0,29.1,00.0,38.8,31.9,25.8,-000.7,0017.38,0010.20,0009.35
2022-06-03 14:52:00,,0824.7,4.99,0.00,30.0,29.1,00.0,38.9,31.9,26.4,-001.1,0016.86,0010.20,0009.34
2022-06-03 14:53:00,,0824.6,5.00,0.00,30.0,29.1,00.0,38.9,31.9,26.0,-000.9,0016.54,0010.20,0009.34
2022-06-03 14:54:00,,0824.6,5.00,0.00,30.0,29.1,00.0,38.9,31.9,25.7,-000.9,0016.60,0010.25,0009.37
2022-06-03 14:55:00,,0824.6,5.01,0.00,30.0,29.1,00.0,38.9,31.9,26.2,-000.9,0016.78,0010.32,0009.44
2022-06-03 14:56:00,,0824.6,5.00,0.00,30.0,29.1,00.0,38.9,31.9,26.2,-001.0,0016.63,0010.31,0009.47
2022-06-03 14:57:00,,0824.6,4.99,0.00,30.0,29.1,00.0,38.9,31.9,25.8,-001.0,0016.66,0010.31,0009.50
2022-06-03 14:58:00,,0824.6,5.00,0.00,30.1,29.1,00.0,38.9,31.9,26.3,-000.8,0016.83,0010.30,0009.51
2022-06-03 14:59:00,,0824.6,4.99,0.00,30.1,29.1,00.0,38.9,31.9,26.3,-001.2,0017.05,0010.29,0009.53
